YMA56A SBMN-SBSN

Flight info

Callsign YMA56A
Flight time 0h 56m
Altitude 33000
Route DOLTI UZ81 TOBUX
Aircraft B738/M-SDE2E3FGHIRWXY/LB1

Departure

Time 2026-05-09 08:10
Airport Ponta Pelada Airport / Manaus Air Base (SBMN)

Arrival

Time 2026-05-09 09:07
Airport Santarém - Maestro Wilson Fonseca International Airport (SBSN)
Time Latitude Longitude Altitude Speed Heading
2026-05-09 07:47 -3.14542 -59.99109 221 ft 0 kts 169°
2026-05-09 08:07 -3.14543 -59.99109 221 ft 1 kts 169°
2026-05-09 08:07 -3.14571 -59.99104 221 ft 7 kts 170°
2026-05-09 08:07 -3.14616 -59.99128 222 ft 10 kts 249°
2026-05-09 08:07 -3.14642 -59.99237 221 ft 20 kts 256°
2026-05-09 08:08 -3.14687 -59.99422 218 ft 19 kts 259°
2026-05-09 08:08 -3.14720 -59.99555 213 ft 9 kts 255°
2026-05-09 08:08 -3.14772 -59.99600 210 ft 8 kts 207°
2026-05-09 08:08 -3.14787 -59.99608 210 ft 0 kts 207°
2026-05-09 08:09 -3.14800 -59.99614 210 ft 4 kts 194°
2026-05-09 08:09 -3.14831 -59.99573 211 ft 12 kts 90°
2026-05-09 08:09 -3.14799 -59.99455 217 ft 32 kts 73°
2026-05-09 08:09 -3.14690 -59.98963 220 ft 106 kts 76°
2026-05-09 08:10 -3.14445 -59.98021 214 ft 168 kts 75°
2026-05-09 08:10 -3.14209 -59.96764 739 ft 175 kts 82°
2026-05-09 08:10 -3.14174 -59.95679 1690 ft 152 kts 87°
2026-05-09 08:10 -3.14149 -59.94590 2147 ft 163 kts 86°
2026-05-09 08:11 -3.14096 -59.93417 2658 ft 171 kts 85°
2026-05-09 08:11 -3.14031 -59.92178 3169 ft 181 kts 85°
2026-05-09 08:11 -3.13959 -59.90853 3684 ft 191 kts 85°
2026-05-09 08:11 -3.13879 -59.89378 3992 ft 213 kts 86°
2026-05-09 08:12 -3.13686 -59.85820 3973 ft 246 kts 86°
2026-05-09 08:12 -3.13588 -59.84005 3966 ft 241 kts 86°
2026-05-09 08:12 -3.13488 -59.82179 3966 ft 241 kts 86°
2026-05-09 08:13 -3.13389 -59.80373 3964 ft 241 kts 86°
2026-05-09 08:13 -3.13293 -59.78597 3964 ft 241 kts 86°
2026-05-09 08:13 -3.13272 -59.76761 4013 ft 249 kts 88°
2026-05-09 08:13 -3.13110 -59.74934 4702 ft 244 kts 85°
2026-05-09 08:14 -3.12985 -59.73141 5412 ft 241 kts 86°
2026-05-09 08:14 -3.12872 -59.71293 5870 ft 248 kts 86°
2026-05-09 08:14 -3.12764 -59.69464 6455 ft 248 kts 86°
2026-05-09 08:14 -3.12655 -59.67590 6897 ft 252 kts 86°
2026-05-09 08:15 -3.12543 -59.65666 7363 ft 255 kts 86°
2026-05-09 08:15 -3.12486 -59.63736 7797 ft 258 kts 95°
2026-05-09 08:15 -3.12727 -59.61788 8237 ft 259 kts 96°
2026-05-09 08:15 -3.12966 -59.59838 8678 ft 261 kts 95°
2026-05-09 08:16 -3.13204 -59.57876 9008 ft 265 kts 95°
2026-05-09 08:16 -3.13439 -59.55948 9434 ft 264 kts 96°
2026-05-09 08:16 -3.13678 -59.53985 9720 ft 269 kts 95°
2026-05-09 08:16 -3.13921 -59.51994 10071 ft 270 kts 95°
2026-05-09 08:17 -3.14170 -59.49955 10259 ft 278 kts 95°
2026-05-09 08:17 -3.14427 -59.47839 10395 ft 286 kts 95°
2026-05-09 08:17 -3.14691 -59.45674 10531 ft 293 kts 95°
2026-05-09 08:17 -3.14960 -59.43457 10666 ft 298 kts 96°
2026-05-09 08:18 -3.15238 -59.41181 10802 ft 302 kts 96°
2026-05-09 08:18 -3.15515 -59.38915 10938 ft 306 kts 96°
2026-05-09 08:18 -3.15794 -59.36616 11072 ft 308 kts 96°
2026-05-09 08:18 -3.16074 -59.34312 11203 ft 311 kts 96°
2026-05-09 08:19 -3.16361 -59.31964 11337 ft 313 kts 96°
2026-05-09 08:19 -3.16645 -59.29630 11470 ft 314 kts 96°
2026-05-09 08:19 -3.16928 -59.27307 11600 ft 315 kts 96°
2026-05-09 08:19 -3.17218 -59.24917 11736 ft 316 kts 96°
2026-05-09 08:20 -3.17509 -59.22512 11791 ft 337 kts 96°
2026-05-09 08:20 -3.17816 -59.19985 12201 ft 353 kts 96°
2026-05-09 08:20 -3.18117 -59.17508 13196 ft 349 kts 96°
2026-05-09 08:20 -3.18435 -59.14911 13775 ft 359 kts 96°
2026-05-09 08:21 -3.18756 -59.12258 14551 ft 361 kts 96°
2026-05-09 08:21 -3.19078 -59.09623 15305 ft 362 kts 96°
2026-05-09 08:21 -3.19405 -59.06917 15836 ft 370 kts 96°
2026-05-09 08:21 -3.19721 -59.04329 16580 ft 369 kts 95°
2026-05-09 08:22 -3.20051 -59.01600 17165 ft 374 kts 95°
2026-05-09 08:22 -3.20396 -58.98771 17743 ft 378 kts 95°
2026-05-09 08:22 -3.20739 -58.95931 18354 ft 380 kts 96°
2026-05-09 08:22 -3.21083 -58.93072 18786 ft 386 kts 96°
2026-05-09 08:23 -3.21430 -58.90212 19405 ft 386 kts 96°
2026-05-09 08:23 -3.21360 -58.87344 19745 ft 391 kts 77°
2026-05-09 08:23 -3.20684 -58.84467 20225 ft 393 kts 77°
2026-05-09 08:23 -3.20018 -58.81589 20701 ft 395 kts 77°
2026-05-09 08:24 -3.19343 -58.78673 21176 ft 397 kts 77°
2026-05-09 08:24 -3.18654 -58.75691 21476 ft 403 kts 77°
2026-05-09 08:24 -3.17962 -58.72700 21948 ft 404 kts 77°
2026-05-09 08:24 -3.17276 -58.69728 22261 ft 409 kts 77°
2026-05-09 08:25 -3.16575 -58.66695 22616 ft 412 kts 77°
2026-05-09 08:25 -3.15908 -58.63814 23025 ft 413 kts 77°
2026-05-09 08:25 -3.15244 -58.60942 23296 ft 418 kts 77°
2026-05-09 08:25 -3.14561 -58.57980 23567 ft 423 kts 77°
2026-05-09 08:26 -3.13877 -58.55022 23995 ft 423 kts 77°
2026-05-09 08:26 -3.13179 -58.52013 24348 ft 425 kts 77°
2026-05-09 08:26 -3.12475 -58.48955 24546 ft 432 kts 76°
2026-05-09 08:26 -3.11724 -58.45735 24820 ft 436 kts 77°
2026-05-09 08:27 -3.10985 -58.42540 25300 ft 435 kts 77°
2026-05-09 08:27 -3.10241 -58.39328 25461 ft 441 kts 77°
2026-05-09 08:27 -3.09329 -58.36153 25733 ft 444 kts 65°
2026-05-09 08:27 -3.07623 -58.33270 26019 ft 446 kts 57°
2026-05-09 08:28 -3.05833 -58.30443 26392 ft 446 kts 57°
2026-05-09 08:28 -3.04041 -58.27624 26603 ft 450 kts 57°
2026-05-09 08:28 -3.02228 -58.24773 26823 ft 453 kts 57°
2026-05-09 08:28 -3.00410 -58.21919 27229 ft 452 kts 57°
2026-05-09 08:29 -2.98589 -58.19057 27393 ft 457 kts 57°
2026-05-09 08:29 -2.96764 -58.16193 27673 ft 458 kts 57°
2026-05-09 08:29 -2.94987 -58.13404 27960 ft 460 kts 57°
2026-05-09 08:29 -2.93194 -58.10587 28137 ft 463 kts 57°
2026-05-09 08:30 -2.91458 -58.07862 28475 ft 462 kts 57°
2026-05-09 08:30 -2.89735 -58.05157 28885 ft 459 kts 57°
2026-05-09 08:30 -2.87949 -58.02353 29014 ft 464 kts 57°
2026-05-09 08:30 -2.86132 -57.99502 29271 ft 464 kts 57°
2026-05-09 08:31 -2.84316 -57.96655 29596 ft 464 kts 57°
2026-05-09 08:31 -2.82534 -57.93854 29849 ft 464 kts 57°
2026-05-09 08:31 -2.80668 -57.90929 30028 ft 467 kts 57°
2026-05-09 08:31 -2.78933 -57.87957 30333 ft 464 kts 69°
2026-05-09 08:32 -2.78143 -57.84792 31367 ft 441 kts 83°
2026-05-09 08:32 -2.77727 -57.81711 31904 ft 433 kts 84°
2026-05-09 08:32 -2.76985 -57.75458 31892 ft 444 kts 85°
2026-05-09 08:33 -2.76617 -57.72247 32081 ft 444 kts 85°
2026-05-09 08:33 -2.76254 -57.69087 32317 ft 443 kts 85°
2026-05-09 08:33 -2.75889 -57.65905 32483 ft 444 kts 85°
2026-05-09 08:33 -2.75524 -57.62720 32630 ft 445 kts 85°
2026-05-09 08:34 -2.75166 -57.59587 32886 ft 443 kts 85°
2026-05-09 08:34 -2.74808 -57.56450 33129 ft 443 kts 85°
2026-05-09 08:34 -2.74445 -57.53287 33299 ft 443 kts 85°
2026-05-09 08:34 -2.74089 -57.50173 33574 ft 441 kts 84°
2026-05-09 08:35 -2.73738 -57.47110 33825 ft 440 kts 84°
2026-05-09 08:35 -2.73389 -57.44077 34018 ft 440 kts 84°
2026-05-09 08:35 -2.73033 -57.40968 34189 ft 440 kts 84°
2026-05-09 08:35 -2.72679 -57.37879 34470 ft 437 kts 84°
2026-05-09 08:36 -2.72323 -57.34789 34668 ft 437 kts 84°
2026-05-09 08:36 -2.71972 -57.31711 34782 ft 438 kts 84°
2026-05-09 08:36 -2.71619 -57.28649 34977 ft 434 kts 84°
2026-05-09 08:37 -2.70923 -57.22588 34979 ft 437 kts 84°
2026-05-09 08:37 -2.70213 -57.16407 34979 ft 444 kts 84°
2026-05-09 08:38 -2.69495 -57.10158 34984 ft 451 kts 84°
2026-05-09 08:38 -2.68766 -57.03818 34980 ft 458 kts 84°
2026-05-09 08:38 -2.68394 -57.00576 34545 ft 457 kts 84°
2026-05-09 08:39 -2.68011 -56.97247 33208 ft 465 kts 84°
2026-05-09 08:39 -2.67621 -56.93861 31911 ft 472 kts 84°
2026-05-09 08:39 -2.67248 -56.90609 31587 ft 458 kts 84°
2026-05-09 08:39 -2.66882 -56.87437 31334 ft 443 kts 84°
2026-05-09 08:40 -2.66531 -56.84388 31084 ft 429 kts 84°
2026-05-09 08:40 -2.66191 -56.81436 30854 ft 415 kts 84°
2026-05-09 08:40 -2.65867 -56.78626 30634 ft 402 kts 84°
2026-05-09 08:40 -2.65548 -56.75859 30406 ft 389 kts 84°
2026-05-09 08:41 -2.65242 -56.73202 30112 ft 379 kts 84°
2026-05-09 08:41 -2.64942 -56.70602 29968 ft 377 kts 84°
2026-05-09 08:41 -2.64641 -56.67990 29977 ft 382 kts 84°
2026-05-09 08:42 -2.64019 -56.62597 29534 ft 386 kts 84°
2026-05-09 08:42 -2.63702 -56.59826 28560 ft 395 kts 84°
2026-05-09 08:42 -2.63386 -56.57094 28027 ft 390 kts 84°
2026-05-09 08:42 -2.63078 -56.54429 27511 ft 385 kts 84°
2026-05-09 08:43 -2.62768 -56.51757 27020 ft 380 kts 84°
2026-05-09 08:43 -2.62465 -56.49129 26556 ft 374 kts 83°
2026-05-09 08:43 -2.62161 -56.46493 26108 ft 368 kts 84°
2026-05-09 08:43 -2.61865 -56.43937 25683 ft 361 kts 84°
2026-05-09 08:44 -2.61578 -56.41440 25266 ft 355 kts 84°
2026-05-09 08:44 -2.61301 -56.39017 24869 ft 348 kts 83°
2026-05-09 08:44 -2.61023 -56.36603 24477 ft 342 kts 83°
2026-05-09 08:44 -2.60750 -56.34228 24091 ft 335 kts 83°
2026-05-09 08:45 -2.60482 -56.31899 23713 ft 329 kts 83°
2026-05-09 08:45 -2.60219 -56.29615 23348 ft 323 kts 83°
2026-05-09 08:45 -2.59961 -56.27373 22994 ft 317 kts 83°
2026-05-09 08:45 -2.59711 -56.25196 22638 ft 312 kts 83°
2026-05-09 08:46 -2.59463 -56.23038 22285 ft 307 kts 83°
2026-05-09 08:46 -2.59218 -56.20906 21956 ft 301 kts 83°
2026-05-09 08:46 -2.58972 -56.18753 21625 ft 296 kts 83°
2026-05-09 08:46 -2.58737 -56.16707 21300 ft 292 kts 83°
2026-05-09 08:47 -2.58504 -56.14671 20978 ft 287 kts 83°
2026-05-09 08:47 -2.58276 -56.12689 20655 ft 282 kts 83°
2026-05-09 08:47 -2.58052 -56.10737 20337 ft 278 kts 83°
2026-05-09 08:47 -2.57821 -56.08730 20008 ft 273 kts 83°
2026-05-09 08:48 -2.57601 -56.06819 19696 ft 269 kts 82°
2026-05-09 08:48 -2.57388 -56.04950 19391 ft 264 kts 82°
2026-05-09 08:48 -2.57177 -56.03118 19091 ft 260 kts 82°
2026-05-09 08:48 -2.56968 -56.01309 18784 ft 255 kts 82°
2026-05-09 08:49 -2.56763 -55.99514 18483 ft 251 kts 82°
2026-05-09 08:49 -2.56556 -55.97730 18180 ft 246 kts 82°
2026-05-09 08:49 -2.56358 -55.95994 17882 ft 241 kts 82°
2026-05-09 08:49 -2.56168 -55.94334 17608 ft 235 kts 81°
2026-05-09 08:50 -2.55982 -55.92725 17323 ft 229 kts 81°
2026-05-09 08:50 -2.55792 -55.91126 17013 ft 224 kts 79°
2026-05-09 08:50 -2.55485 -55.89529 16521 ft 224 kts 76°
2026-05-09 08:50 -2.55134 -55.87932 16405 ft 237 kts 76°
2026-05-09 08:51 -2.54770 -55.86253 16610 ft 247 kts 76°
2026-05-09 08:51 -2.54435 -55.84489 16751 ft 263 kts 80°
2026-05-09 08:51 -2.54120 -55.82566 16795 ft 282 kts 80°
2026-05-09 08:51 -2.53785 -55.80542 17113 ft 288 kts 79°
2026-05-09 08:52 -2.53411 -55.78419 16992 ft 293 kts 76°
2026-05-09 08:52 -2.52992 -55.76316 16582 ft 290 kts 86°
2026-05-09 08:52 -2.53211 -55.74207 16196 ft 286 kts 93°
2026-05-09 08:52 -2.53280 -55.72065 15782 ft 283 kts 87°
2026-05-09 08:53 -2.53193 -55.69973 15337 ft 282 kts 85°
2026-05-09 08:53 -2.53033 -55.67882 14945 ft 279 kts 84°
2026-05-09 08:53 -2.52841 -55.65851 14575 ft 276 kts 83°
2026-05-09 08:53 -2.52630 -55.63831 14181 ft 274 kts 83°
2026-05-09 08:54 -2.52412 -55.61848 13777 ft 272 kts 83°
2026-05-09 08:54 -2.52191 -55.59875 13447 ft 268 kts 82°
2026-05-09 08:54 -2.51976 -55.57991 13059 ft 267 kts 82°
2026-05-09 08:54 -2.51765 -55.56154 12716 ft 264 kts 83°
2026-05-09 08:55 -2.51555 -55.54331 12385 ft 261 kts 83°
2026-05-09 08:55 -2.51350 -55.52543 12009 ft 260 kts 83°
2026-05-09 08:55 -2.51141 -55.50734 11621 ft 259 kts 83°
2026-05-09 08:55 -2.50936 -55.48950 11334 ft 254 kts 83°
2026-05-09 08:56 -2.50747 -55.47208 10968 ft 253 kts 84°
2026-05-09 08:56 -2.50570 -55.45421 10585 ft 253 kts 84°
2026-05-09 08:56 -2.50393 -55.43647 10268 ft 249 kts 84°
2026-05-09 08:56 -2.50222 -55.41916 9917 ft 248 kts 84°
2026-05-09 08:57 -2.50045 -55.40154 9144 ft 265 kts 84°
2026-05-09 08:57 -2.49858 -55.38283 8613 ft 267 kts 84°
2026-05-09 08:57 -2.49679 -55.36464 8514 ft 254 kts 84°
2026-05-09 08:57 -2.49494 -55.34612 7944 ft 260 kts 84°
2026-05-09 08:58 -2.49306 -55.32732 7623 ft 255 kts 84°
2026-05-09 08:58 -2.49119 -55.30839 7228 ft 255 kts 85°
2026-05-09 08:58 -2.48928 -55.28941 6818 ft 254 kts 85°
2026-05-09 08:58 -2.48741 -55.27045 6489 ft 250 kts 85°
2026-05-09 08:59 -2.48551 -55.25121 6001 ft 253 kts 85°
2026-05-09 08:59 -2.48361 -55.23173 5642 ft 249 kts 85°
2026-05-09 08:59 -2.48170 -55.21262 5285 ft 247 kts 85°
2026-05-09 08:59 -2.47991 -55.19449 4859 ft 248 kts 84°
2026-05-09 09:00 -2.47815 -55.17686 4570 ft 243 kts 84°
2026-05-09 09:00 -2.47641 -55.15935 4215 ft 242 kts 84°
2026-05-09 09:00 -2.47505 -55.14181 4026 ft 252 kts 88°
2026-05-09 09:00 -2.47405 -55.12366 3990 ft 247 kts 84°
2026-05-09 09:01 -2.47225 -55.10562 3985 ft 240 kts 83°
2026-05-09 09:01 -2.46991 -55.08701 3987 ft 239 kts 82°
2026-05-09 09:01 -2.46736 -55.06840 3987 ft 241 kts 82°
2026-05-09 09:01 -2.46471 -55.04981 3970 ft 231 kts 80°
2026-05-09 09:02 -2.46183 -55.03260 3950 ft 214 kts 81°
2026-05-09 09:02 -2.45920 -55.01675 3956 ft 202 kts 81°
2026-05-09 09:02 -2.45666 -55.00124 3985 ft 206 kts 81°
2026-05-09 09:02 -2.45400 -54.98503 3749 ft 210 kts 81°
2026-05-09 09:03 -2.45142 -54.96925 3446 ft 204 kts 81°
2026-05-09 09:03 -2.44886 -54.95371 3149 ft 204 kts 80°
2026-05-09 09:03 -2.44630 -54.93807 2844 ft 203 kts 81°
2026-05-09 09:03 -2.44381 -54.92285 2584 ft 196 kts 80°
2026-05-09 09:04 -2.44150 -54.90886 2311 ft 179 kts 80°
2026-05-09 09:04 -2.43938 -54.89592 2015 ft 165 kts 79°
2026-05-09 09:04 -2.43746 -54.88433 1787 ft 147 kts 79°
2026-05-09 09:04 -2.43586 -54.87462 1546 ft 128 kts 79°
2026-05-09 09:05 -2.43429 -54.86514 1403 ft 136 kts 79°
2026-05-09 09:05 -2.43265 -54.85507 1230 ft 143 kts 78°
2026-05-09 09:05 -2.43093 -54.84470 1006 ft 144 kts 80°
2026-05-09 09:05 -2.42925 -54.83440 810 ft 145 kts 79°
2026-05-09 09:06 -2.42753 -54.82393 605 ft 147 kts 79°
2026-05-09 09:06 -2.42583 -54.81360 410 ft 148 kts 79°
2026-05-09 09:06 -2.42411 -54.80312 228 ft 149 kts 80°
2026-05-09 09:06 -2.42254 -54.79347 196 ft 119 kts 78°
2026-05-09 09:07 -2.42166 -54.78819 191 ft 29 kts 88°
2026-05-09 09:07 -2.42275 -54.78657 189 ft 27 kts 133°
2026-05-09 09:07 -2.42393 -54.78589 189 ft 11 kts 167°
2026-05-09 09:07 -2.42414 -54.78568 188 ft 1 kts 118°
2026-05-09 09:08 -2.42417 -54.78563 188 ft 0 kts 118°